User: anonymous   Login
Location: Mentone
(34.5413°N, 85.5351°W)
Time: 02:30:35
(UTC-06:00)
Language:

Cosmos 2026 Rocket - Orbit

View from above orbital plane
View from above orbital plane
View from above satellite
View from above satellite

Ground track
Ground track

The orbit data is extracted from the following two-line orbital elements,

1 20046U 89042B   17020.17962758  .00000094  00000-0  77366-4 0  9996
2 20046  82.9359  53.5018 0043322 122.7131 237.8216 13.78090063388862
Epoch (UTC): 20 January 2017 04:18:39
Eccentricity: 0.0043322
inclination: 82.9359°
perigee height: 939 km
apogee height: 1002 km
right ascension of ascending node: 53.5018°
argument of perigee: 122.7131°
revolutions per day: 13.78090063
mean anomaly at epoch: 237.8216°
orbit number at epoch: 38886

The dashed part of the orbit path shows where the satellite is in the earth's shadow,  

DLR